RH
78 70 63 65 59 57 56 72 84 84 94 86 78 64 62 60 48 39 38 37 33 32 34 37 37 38 46 40 48 44 42 36 35 35 34 35 36 36 36 33 33 34 35
84 70 83 78 68 60 58 51 64 69 69 69 81 77 66 63 58 45 39 39 38 35 34 35 36 36 41 45 46 42 40 39 39 36 36 39 40 41 40 41 38 39 38
79 91 88 62 60 59 57 60 59 60 58 65 70 77 80 72 58 53 43 41 42 41 37 35 36 37 37 45 44 40 41 38 39 38 40 46 48 52 47 43 46 45 37
71 64 61 59 57 58 57 55 59 64 65 60 66 77 80 80 76 61 50 44 44 46 45 42 41 42 39 38 46 45 42 43 43 43 46 47 49 56 56 57 51 53 46
58 58 57 61 58 49 49 44 47 54 63 64 74 77 83 77 76 66 58 52 48 52 52 50 48 46 45 41 42 45 48 46 45 47 49 51 54 55 56 55 58 53 58
21 20 22 24 27 36 32 45 62 45 60 63 71 83 84 82 73 70 68 65 59 57 60 58 55 59 58 50 45 47 49 50 51 50 52 54 55 52 53 56 56 56 52
24 21 19 21 20 38 43 49 60 54 45 61 61 87 87 84 76 68 68 72 66 72 72 76 72 61 58 63 59 50 50 55 55 57 59 63 62 60 60 58 54 53 54
32 27 23 23 22 22 62 78 60 74 73 74 66 69 86 85 85 83 76 71 72 64 83 93 87 83 75 67 67 68 62 58 57 61 67 70 69 69 67 64 63 61 58
45 34 28 24 24 22 22 57 95 62 59 86 85 81 78 77 81 77 70 68 72 78 91 100 100 100 95 85 80 78 77 75 76 75 66 76 79 82 86 81 76 76 76
58 51 40 35 30 26 25 24 30 68 45 40 77 96 96 89 84 84 90 84 89 91 87 96 100 100 100 100 95 87 88 90 87 89 89 89 94 96 100 100 100 95 100
57 58 57 49 37 34 29 30 34 30 42 34 38 70 100 100 100 100 99 100 100 99 97 91 99 100 100 100 100 100 100 100 100 100 100 92 87 99 100 100 99 98 97
70 60 62 64 54 42 36 32 29 37 62 79 76 51 61 76 99 100 100 100 100 100 100 93 92 97 96 97 100 100 100 100 99 97 93 100 98 91 96 99 87 87 88
100 94 74 65 65 60 53 39 33 35 32 45 100 98 87 92 68 74 100 100 100 100 100 100 100 100 100 100 99 100 100 100 100 94 81 90 98 95 93 99 100 98 88
100 100 100 84 76 70 69 62 47 34 44 51 35 98 100 100 94 87 96 100 100 100 100 99 92 94 96 100 100 100 100 100 100 100 89 90 96 100 100 100 100 100 99
94 100 100 100 95 75 68 69 58 50 58 51 46 48 97 100 100 100 100 99 76 71 89 96 93 96 90 82 70 70 77 76 64 63 70 78 90 91 85 71 63 68 77
46 55 87 99 100 100 84 73 71 61 51 54 58 36 44 74 90 100 100 100 100 93 94 83 73 90 89 76 82 79 74 74 72 70 57 50 49 48 49 55 60 69 64
44 44 45 49 60 83 100 97 73 65 58 50 56 47 36 37 52 80 97 100 100 100 100 100 100 86 82 93 89 95 97 78 74 67 73 83 100 97 90 68 66 83 77
44 41 39 45 48 44 48 60 82 86 62 54 45 43 65 46 42 48 69 93 100 100 100 100 100 100 95 92 83 84 94 90 63 62 66 51 58 63 65 61 68 75 80
36 40 47 37 34 39 40 42 38 47 66 62 59 55 54 73 60 56 54 52 82 100 100 98 95 100 99 96 90 89 97 86 81 81 66 65 63 63 69 61 62 62 63
35 41 38 38 33 29 32 34 32 32 28 40 58 68 60 45 53 68 80 74 69 86 100 100 95 98 100 100 96 94 92 93 84 71 70 71 67 73 72 70 65 56 56
10 19 27 24 21 24 23 20 22 24 29 26 24 39 64 54 47 61 58 62 66 82 92 93 98 92 91 98 97 94 85 84 97 75 64 62 61 61 69 66 62 69 64
8 8 7 6 8 15 17 18 17 18 22 26 29 26 29 36 52 63 62 51 54 62 66 91 88 91 85 88 80 78 70 64 68 64 59 62 58 49 49 55 61 58 62
8 8 6 7 7 9 11 12 12 12 13 15 19 22 26 25 25 45 47 39 38 46 53 64 77 80 85 84 76 64 65 72 63 64 61 57 62 61 72 65 65 85 73
7 6 5 5 4 4 4 4 5 5 7 10 13 13 14 18 23 24 26 35 41 30 37 42 57 66 60 72 70 60 61 62 66 68 64 59 54 62 63 64 72 85 69
7 5 4 4 4 3 3 3 3 3 3 4 5 7 7 10 17 22 24 28 37 42 42 46 54 60 65 54 61 79 61 58 64 58 74 64 63 92 67 73 67 66 65
5 4 4 3 3 3 3 2 2 2 3 3 4 4 4 6 8 12 21 27 28 34 35 39 58 62 62 62 61 57 65 87 61 57 70 98 75 81 67 96 100 96 88
Wind_Speed
40 37 34 34 33 31 29 27 25 24 23 23 22 22 21 21 22 21 21 22 22 21 21 20 18 16 17 16 13 14 14 14 15 15 16 16 16 15 13 12 8 6 8
42 38 36 36 39 37 35 35 33 31 28 28 27 24 24 22 22 22 22 21 22 23 23 23 21 18 17 19 18 17 15 15 17 17 17 18 17 17 15 13 11 10 9
45 45 45 42 40 39 41 40 39 38 34 32 34 31 29 27 25 24 24 25 22 23 24 24 24 23 19 18 21 20 18 17 17 17 18 17 17 17 18 19 16 13 10
47 47 48 48 47 47 45 46 45 42 39 38 37 36 33 31 28 28 28 28 26 26 25 25 25 25 25 22 22 23 22 21 21 22 22 21 20 18 18 19 20 18 16
51 52 52 52 50 49 48 46 47 48 44 40 39 38 34 33 32 31 30 30 29 29 30 29 27 28 27 26 26 25 25 26 26 25 25 25 24 23 23 20 20 20 19
38 40 45 48 49 49 48 48 47 47 44 42 42 40 38 37 36 34 32 33 33 33 32 31 30 29 31 31 28 27 28 29 30 31 29 28 28 28 28 25 22 22 23
37 34 34 38 43 44 45 46 48 48 46 44 43 43 41 39 39 38 36 37 36 36 35 36 34 33 31 31 32 31 30 30 31 32 33 31 31 31 30 31 28 26 25
37 37 35 33 36 42 42 44 45 49 49 49 47 46 46 44 43 42 40 40 40 38 39 39 39 38 37 34 33 34 34 33 34 34 34 34 33 33 33 33 33 31 31
35 37 38 36 34 36 41 43 44 46 47 53 53 50 49 47 47 47 46 45 44 43 42 42 42 41 41 40 38 37 37 37 37 38 38 37 36 36 36 37 37 38 38
40 39 38 39 37 36 35 40 44 44 45 47 51 52 51 51 50 49 49 49 48 46 45 45 46 45 45 43 44 43 43 43 44 42 41 40 39 39 40 40 40 41 42
47 44 43 41 42 40 39 37 39 44 47 47 47 49 49 48 50 52 52 52 51 50 49 49 50 49 48 48 49 48 48 46 45 44 42 42 43 44 45 45 44 45 45
57 52 50 49 47 45 43 44 40 41 41 40 41 44 46 47 48 45 47 51 54 54 55 54 54 54 52 52 53 53 53 53 52 51 48 48 49 51 51 50 51 51 52
64 62 58 55 54 53 50 47 46 42 43 43 40 39 41 40 42 46 43 36 36 42 48 54 61 62 61 61 60 58 58 57 57 56 54 55 56 56 55 56 56 56 56
68 68 67 63 61 59 57 56 50 49 45 45 46 45 41 41 40 40 41 35 31 34 36 39 44 47 52 58 61 63 64 63 62 60 60 61 61 62 62 63 62 61 61
75 72 70 70 69 66 63 63 60 56 50 51 49 51 49 47 44 42 41 44 48 46 42 43 44 43 43 44 47 50 54 57 57 58 61 62 64 65 66 64 63 63 65
81 80 79 76 74 74 72 69 68 65 61 56 53 54 55 56 53 49 47 47 47 47 45 47 46 45 44 43 43 42 42 45 46 49 49 48 49 51 51 50 49 49 51
87 85 85 85 84 82 79 77 75 73 69 65 59 60 59 60 61 58 53 50 49 50 49 46 47 47 48 44 42 40 39 39 39 38 36 39 39 40 43 43 43 44 47
87 90 92 91 89 88 88 88 83 81 77 73 71 67 60 62 64 61 63 57 55 54 54 54 50 49 47 49 47 44 43 44 41 41 42 44 44 44 45 44 42 42 44
95 95 97 96 94 94 94 92 92 90 87 82 79 73 69 63 66 67 63 66 62 60 57 57 54 53 55 53 52 50 48 49 49 47 48 48 47 48 47 43 42 44 44
102 103 103 104 100 99 98 97 96 95 91 91 87 86 82 80 66 66 66 67 66 64 64 62 58 56 52 53 52 54 53 49 50 50 52 51 49 51 50 49 49 49 49
98 102 105 107 109 104 101 99 98 98 97 92 90 90 90 88 82 72 71 72 71 67 68 66 63 56 57 55 53 56 55 55 53 57 55 54 53 54 53 54 53 54 54
95 97 99 101 105 108 106 105 103 102 99 97 96 93 93 93 90 87 80 75 77 74 73 71 69 66 62 62 57 59 59 61 62 62 59 61 61 60 57 58 57 58 59
92 95 97 97 102 107 110 109 108 105 104 102 100 101 98 97 93 92 93 91 82 79 80 78 77 73 74 72 69 65 64 66 68 65 65 65 63 63 62 61 59 57 59
92 94 98 99 102 105 106 104 104 105 106 106 107 108 103 100 97 94 94 95 94 86 89 83 83 83 79 77 75 73 72 70 71 69 71 69 66 66 68 65 65 60 59
87 89 90 93 94 97 98 98 99 100 99 99 103 107 106 104 103 101 98 96 99 96 93 89 88 85 86 83 82 81 78 79 75 73 71 69 68 69 71 68 66 65 65
75 77 79 80 82 84 87 88 90 92 92 91 94 100 103 103 100 101 102 100 99 101 99 95 94 94 90 92 87 82 86 87 84 78 74 73 72 71 69 71 72 72 70
Wind_Direction
244 245 248 252 254 258 261 259 257 263 266 267 268 272 275 282 283 282 280 284 285 289 291 296 304 310 304 303 299 298 302 306 312 318 325 334 338 334 324 329 325 329 336
243 242 247 253 256 256 257 257 257 262 262 267 265 265 264 270 277 278 277 279 282 287 289 292 297 300 302 300 302 300 297 299 304 309 317 325 330 328 324 326 317 315 316
249 250 253 254 250 252 257 256 256 262 262 262 260 259 259 263 269 273 273 274 276 279 283 288 294 295 296 292 296 301 301 301 302 304 309 316 323 324 320 314 311 306 305
252 254 254 253 252 254 256 254 254 257 257 261 259 257 260 262 262 268 269 269 272 273 278 283 289 293 292 290 286 292 294 298 303 306 307 309 314 317 321 318 312 302 299
250 252 254 255 255 255 255 252 252 251 253 256 252 254 254 258 262 266 266 266 272 271 276 276 280 286 289 288 288 285 286 293 299 305 308 308 309 312 312 312 308 300 293
255 255 254 253 252 253 254 251 250 251 251 251 249 250 253 255 259 261 261 264 268 270 271 272 275 281 285 284 283 283 285 288 292 296 302 307 309 309 311 313 309 305 296
260 260 259 255 253 250 251 250 249 252 252 251 247 247 251 256 260 259 260 260 263 267 269 270 270 274 276 280 282 282 284 285 286 289 295 298 302 305 309 307 306 301 296
261 263 264 264 259 252 250 249 247 249 251 252 251 248 249 252 255 256 259 260 264 265 266 266 268 269 273 273 277 277 280 281 282 282 285 288 292 295 299 300 300 299 297
260 261 265 264 263 261 251 248 250 248 251 252 252 252 250 251 254 257 257 257 259 262 262 264 266 267 269 268 273 275 274 274 278 279 278 281 283 285 288 292 294 295 294
258 260 262 264 263 264 263 254 248 251 249 253 254 253 254 256 257 256 258 259 259 261 261 261 263 266 268 268 269 271 273 274 274 275 275 277 279 281 284 285 286 288 289
257 258 261 263 262 261 263 260 256 252 252 254 254 250 250 253 257 258 259 259 259 258 259 259 260 262 266 268 269 270 273 275 276 279 277 273 278 280 284 284 285 285 285
258 257 257 261 262 261 258 260 256 254 251 253 252 250 252 251 253 258 258 260 261 262 262 262 261 262 262 265 267 269 272 273 274 275 275 273 275 280 282 283 283 284 284
257 258 259 257 259 263 262 259 256 254 255 252 253 251 247 249 248 249 252 255 259 261 261 262 261 262 266 267 267 267 269 271 273 275 276 276 277 277 278 281 282 280 282
254 258 261 258 258 258 260 262 261 254 251 252 252 250 251 253 253 247 247 248 257 260 260 263 264 265 265 266 268 268 268 268 271 274 275 275 277 278 280 283 284 281 281
252 252 254 258 259 258 257 258 259 258 253 251 252 249 247 250 249 252 252 250 251 252 251 258 264 266 268 269 270 270 270 272 274 274 275 276 276 278 281 283 283 282 282
252 253 253 253 254 257 257 256 257 258 256 254 250 249 248 249 250 250 250 254 255 260 262 263 263 267 269 273 272 270 270 271 272 274 276 277 278 278 281 282 283 285 287
251 253 253 254 254 254 254 258 257 257 256 255 253 251 249 250 251 250 251 255 253 257 259 263 267 267 270 267 268 266 269 270 273 270 275 280 278 278 282 283 285 286 291
254 254 253 254 255 255 255 255 255 256 256 256 255 250 253 252 250 251 248 252 256 256 257 258 262 265 266 269 270 267 270 272 273 276 277 282 282 280 283 286 284 284 287
258 258 257 254 253 255 255 256 256 254 255 256 256 255 253 251 251 252 254 250 253 256 259 257 260 264 266 266 270 269 270 273 277 279 281 286 285 288 282 283 286 288 291
256 256 257 258 257 255 254 254 255 255 254 255 254 256 256 255 248 246 251 255 254 255 258 259 262 259 259 264 266 271 271 273 278 278 280 282 283 282 284 285 287 290 289
255 253 254 256 256 254 254 253 254 253 254 253 254 253 255 256 257 253 247 250 253 254 256 257 259 258 257 258 261 266 272 276 274 276 280 283 280 279 282 285 286 288 290
256 254 253 255 254 253 253 253 252 252 251 252 254 254 253 254 255 255 255 249 249 253 256 258 258 258 257 260 259 264 268 272 272 277 278 278 280 280 280 282 283 286 287
257 256 254 253 252 252 252 251 252 251 251 252 252 253 252 252 251 252 255 256 252 250 252 257 258 259 259 262 264 267 264 267 271 273 276 276 278 281 282 283 283 285 284
257 256 255 253 253 253 254 255 254 253 251 251 252 252 251 250 252 252 254 255 257 255 255 253 255 260 262 261 265 267 267 269 270 272 274 276 277 278 280 282 282 283 280
261 260 258 257 258 258 257 256 255 254 252 251 250 251 252 250 249 251 252 253 255 255 256 257 257 257 260 262 261 266 271 271 271 271 275 277 275 281 281 281 281 280 280
266 266 264 262 261 259 257 256 255 255 254 253 249 250 251 251 249 248 249 250 252 254 256 258 258 259 259 261 263 265 267 270 271 271 272 274 276 279 278 282 283 281 281